Location: Unspecified
(34.4950°S, 58.5160°W)
Time: 15:03:25
(UTC+00:00)

Cosmos 1655 Rocket - Pass Details

Date: 30 June 2022
Orbit: 971 x 1005 km, 83.0° (Epoch: 11 August)

Event Time Altitude Azimuth Distance (km) Brightness Sun altitude
Rises 23:57:45 0° 344° (NNW) 3,706 7.3 -37.0°
Reaches altitude 10° 00:00:19 10° 339° (NNW) 2,768 6.6 -37.5°
Enters shadow 00:03:14 28° 328° (NNW) 1,783 5.5 -38.1°
